| time (UTC) | temp C | wind direction | speed KPH | gust KPH | rain 1hr cm | rain 24hr cm | rain mn cm | humidity % | barometer mb |
| 20260508063307 | 12 | 315 | 0.0 | 1.6 | 0.00 | 0.00 | 0.00 | 99 | 991.0 |
| 20260508061306 | 12 | 315 | 0.0 | 0.0 | 0.00 | 0.00 | 0.00 | 99 | 992.0 |
| 20260508055307 | 11 | 112 | 0.0 | 1.6 | 0.00 | 0.00 | 0.00 | 99 | 992.0 |
| 20260508053306 | 11 | 112 | 0.0 | 3.2 | 0.00 | 0.00 | 0.00 | 99 | 992.0 |
| 20260508051308 | 10 | 112 | 0.0 | 3.2 | 0.00 | 0.00 | 0.00 | 99 | 991.0 |
| 20260508045307 | 10 | 112 | 0.0 | 0.0 | 0.00 | 0.00 | 0.00 | 99 | 992.0 |
| 20260508043307 | 10 | 112 | 0.0 | 0.0 | 0.00 | 0.00 | 0.00 | 99 | 991.0 |
| 20260508041307 | 10 | 112 | 0.0 | 0.0 | 0.00 | 0.00 | 0.00 | 99 | 991.0 |
| 20260508035307 | 10 | 112 | 0.0 | 0.0 | 0.00 | 0.00 | 0.00 | 99 | 991.0 |
| 20260508033307 | 10 | 135 | 0.0 | 0.0 | 0.00 | 0.00 | 0.00 | 99 | 991.0 |
| 20260508031307 | 10 | 112 | 0.0 | 0.0 | 0.00 | 0.00 | 0.00 | 99 | 991.0 |
| 20260508025307 | 10 | 112 | 0.0 | 0.0 | 0.00 | 0.00 | 0.00 | 99 | 991.0 |
| 20260508023306 | 10 | 112 | 0.0 | 0.0 | 0.00 | 0.00 | 0.00 | 99 | 991.0 |
| 20260508021306 | 10 | 112 | 0.0 | 1.6 | 0.00 | 0.00 | 0.00 | 99 | 990.0 |
| 20260508015341 | 10 | 135 | 0.0 | 1.6 | 0.00 | 0.00 | 0.00 | 99 | 991.0 |
| 20260508015306 | 10 | 135 | 0.0 | 1.6 | 0.00 | 0.00 | 0.00 | 99 | 991.0 |
| 20260508013307 | 10 | 112 | 0.0 | 1.6 | 0.00 | 0.00 | 0.00 | 99 | 991.0 |
| 20260508011306 | 10 | 112 | 0.0 | 0.0 | 0.00 | 0.00 | 0.00 | 99 | 991.0 |
| 20260508005308 | 10 | 112 | 0.0 | 0.0 | 0.00 | 0.00 | 0.00 | 99 | 991.0 |
| 20260508003307 | 10 | 135 | 0.0 | 0.0 | 0.00 | 0.00 | 0.00 | 99 | 991.0 |
| 20260508001355 | 10 | 112 | 0.0 | 1.6 | 0.00 | 0.00 | 0.00 | 99 | 991.0 |
| 20260508001307 | 10 | 112 | 0.0 | 1.6 | 0.00 | 0.00 | 0.00 | 99 | 991.0 |
| 20260507235359 | 10 | 112 | 0.0 | 1.6 | 0.00 | 0.00 | 0.00 | 99 | 991.0 |
| 20260507235307 | 10 | 112 | 0.0 | 1.6 | 0.00 | 0.00 | 0.00 | 99 | 991.0 |
| 20260507233307 | 10 | 112 | 0.0 | 3.2 | 0.00 | 0.00 | 0.00 | 99 | 991.0 |
| 20260507231307 | 10 | 112 | 0.0 | 1.6 | 0.00 | 0.00 | 0.00 | 99 | 991.0 |
| 20260507225307 | 10 | 112 | 0.0 | 1.6 | 0.00 | 0.00 | 0.00 | 99 | 991.0 |
| 20260507223307 | 10 | 135 | 1.6 | 3.2 | 0.00 | 0.00 | 0.00 | 99 | 992.0 |
| 20260507221341 | 10 | 135 | 1.6 | 3.2 | 0.00 | 0.00 | 0.00 | 99 | 991.0 |
| 20260507221307 | 10 | 135 | 1.6 | 3.2 | 0.00 | 0.00 | 0.00 | 99 | 991.0 |
| 20260507220049 | 10 | 135 | 0.0 | 3.2 | 0.00 | 0.00 | 0.00 | 99 | 992.0 |
| 20260507215307 | 10 | 135 | 0.0 | 3.2 | 0.00 | 0.00 | 0.00 | 99 | 992.0 |
| 20260507213306 | 10 | 135 | 0.0 | 3.2 | 0.00 | 0.00 | 0.00 | 99 | 992.0 |
| 20260507205307 | 10 | 135 | 0.0 | 1.6 | 0.00 | 0.00 | 0.00 | 99 | 992.0 |
| 20260507203307 | 10 | 135 | 0.0 | 3.2 | 0.00 | 0.00 | 0.00 | 99 | 992.0 |
| 20260507201306 | 10 | 112 | 1.6 | 3.2 | 0.00 | 0.00 | 0.00 | 99 | 992.0 |
| 20260507195309 | 10 | 112 | 1.6 | 4.8 | 0.00 | 0.00 | 0.00 | 99 | 992.0 |
| 20260507193308 | 10 | 112 | 3.2 | 6.4 | 0.00 | 0.00 | 0.00 | 99 | 992.0 |
| 20260507191348 | 10 | 112 | 3.2 | 3.2 | 0.00 | 0.00 | 0.00 | 99 | 992.0 |
| 20260507191307 | 10 | 112 | 3.2 | 3.2 | 0.00 | 0.00 | 0.00 | 99 | 992.0 |
| 20260507185307 | 10 | 112 | 3.2 | 6.4 | 0.00 | 0.00 | 0.00 | 99 | 992.0 |
| 20260507183307 | 10 | 112 | 1.6 | 3.2 | 0.00 | 0.00 | 0.00 | 99 | 992.0 |
| 20260507181306 | 10 | 112 | 3.2 | 4.8 | 0.00 | 0.00 | 0.00 | 99 | 992.0 |
| 20260507175351 | 10 | 112 | 3.2 | 6.4 | 0.00 | 0.00 | 0.00 | 98 | 992.0 |
| 20260507175307 | 10 | 112 | 3.2 | 6.4 | 0.00 | 0.00 | 0.00 | 98 | 992.0 |
| 20260507173307 | 10 | 112 | 3.2 | 6.4 | 0.00 | 0.00 | 0.00 | 98 | 992.0 |
| 20260507171309 | 10 | 112 | 3.2 | 4.8 | 0.00 | 0.00 | 0.00 | 95 | 991.0 |
| 20260507165307 | 10 | 112 | 3.2 | 8.0 | 0.00 | 0.00 | 0.00 | 93 | 991.0 |
| 20260507163307 | 11 | 112 | 3.2 | 6.4 | 0.00 | 0.00 | 0.00 | 91 | 991.0 |
| 20260507161308 | 11 | 135 | 4.8 | 8.0 | 0.00 | 0.00 | 0.00 | 86 | 991.0 |
| 20260507155307 | 12 | 112 | 4.8 | 8.0 | 0.00 | 0.00 | 0.00 | 83 | 991.0 |
| 20260507153344 | 13 | 112 | 6.4 | 11.3 | 0.00 | 0.00 | 0.00 | 82 | 991.0 |
| 20260507153307 | 13 | 112 | 6.4 | 11.3 | 0.00 | 0.00 | 0.00 | 82 | 991.0 |
| 20260507151307 | 13 | 90 | 6.4 | 9.7 | 0.00 | 0.00 | 0.00 | 79 | 991.0 |
| 20260507145307 | 15 | 135 | 6.4 | 11.3 | 0.00 | 0.00 | 0.00 | 79 | 991.0 |
| 20260507143307 | 15 | 135 | 4.8 | 9.7 | 0.00 | 0.00 | 0.00 | 78 | 992.0 |
| 20260507141307 | 15 | 135 | 6.4 | 16.1 | 0.00 | 0.00 | 0.00 | 75 | 991.0 |
| 20260507135314 | 15 | 135 | 4.8 | 9.7 | 0.00 | 0.00 | 0.00 | 73 | 992.0 |
| 20260507135307 | 15 | 135 | 4.8 | 9.7 | 0.00 | 0.00 | 0.00 | 73 | 992.0 |
| 20260507133308 | 15 | 112 | 6.4 | 12.9 | 0.00 | 0.00 | 0.00 | 74 | 992.0 |
| 20260507131426 | 15 | 112 | 6.4 | 9.7 | 0.00 | 0.00 | 0.00 | 71 | 992.0 |
| 20260507131309 | 15 | 112 | 6.4 | 9.7 | 0.00 | 0.00 | 0.00 | 71 | 992.0 |
| 20260507125308 | 16 | 112 | 6.4 | 12.9 | 0.00 | 0.00 | 0.00 | 71 | 992.0 |
| 20260507123307 | 16 | 112 | 6.4 | 8.0 | 0.00 | 0.00 | 0.00 | 72 | 992.0 |
| 20260507121306 | 16 | 112 | 6.4 | 12.9 | 0.00 | 0.00 | 0.00 | 68 | 991.0 |
| 20260507115307 | 16 | 112 | 9.7 | 16.1 | 0.00 | 0.00 | 0.00 | 68 | 991.0 |
| 20260507113307 | 16 | 112 | 8.0 | 14.5 | 0.00 | 0.00 | 0.00 | 69 | 991.0 |
| 20260507111308 | 17 | 112 | 8.0 | 12.9 | 0.00 | 0.00 | 0.00 | 69 | 992.0 |
| 20260507105307 | 16 | 112 | 6.4 | 12.9 | 0.00 | 0.00 | 0.00 | 69 | 992.0 |
| 20260507103308 | 15 | 112 | 4.8 | 9.7 | 0.00 | 0.00 | 0.00 | 72 | 992.0 |
| 20260507101307 | 17 | 135 | 9.7 | 14.5 | 0.00 | 0.00 | 0.00 | 68 | 992.0 |
| 20260507095308 | 17 | 135 | 4.8 | 8.0 | 0.00 | 0.00 | 0.00 | 68 | 991.0 |
| 20260507093307 | 17 | 135 | 3.2 | 11.3 | 0.00 | 0.00 | 0.00 | 67 | 992.0 |
| 20260507091307 | 16 | 112 | 6.4 | 9.7 | 0.00 | 0.00 | 0.00 | 71 | 992.0 |
| 20260507085307 | 15 | 112 | 6.4 | 11.3 | 0.00 | 0.00 | 0.00 | 73 | 992.0 |
| 20260507083307 | 16 | 112 | 4.8 | 6.4 | 0.00 | 0.00 | 0.00 | 72 | 992.0 |
| 20260507081307 | 16 | 135 | 3.2 | 6.4 | 0.00 | 0.00 | 0.00 | 70 | 992.0 |
| 20260507075307 | 16 | 135 | 4.8 | 9.7 | 0.00 | 0.00 | 0.00 | 72 | 992.0 |
| 20260507073307 | 16 | 112 | 3.2 | 6.4 | 0.00 | 0.00 | 0.00 | 70 | 992.0 |
| 20260507071306 | 16 | 112 | 3.2 | 8.0 | 0.00 | 0.00 | 0.00 | 75 | 992.0 |
| 20260507065307 | 15 | 135 | 3.2 | 4.8 | 0.00 | 0.00 | 0.00 | 72 | 991.0 |